Location: *
(33.8649°S, 62.1526°E)
Time: 13:12:01
(UTC+00:00)

ALOS - Pass Details

Date: 17 January 2021
Orbit: 683 x 685 km, 97.9° (Epoch: 02 March)

Event Time Altitude Azimuth Distance (km) Brightness Sun altitude
Exits shadow 23:19:06 - 20° (NNE) 2,995 5.4 -18.1°
Reaches altitude 10° 23:21:14 10° 23° (NNE) 2,127 4.6 -17.8°
Maximum altitude 23:25:51 67° 104° (ESE) 752 2.6 -17.1°
Drops below altitude 10° 23:30:32 10° 186° (S) 2,157 5.3 -16.3°
Sets 23:32:49 0° 188° (S) 3,081 6.1 -16.0°
